RH
37 33 34 37 30 31 33 37 35 29 22 25 23 25 22 20 22 23 26 22 19 23 27 25 25 27 35 39 38 37 29 28 27 34 46 40 36 42 54 77 96 86 95 95
41 38 34 34 32 33 37 40 35 28 25 27 29 31 26 23 24 25 26 19 22 22 14 20 26 29 39 45 48 45 39 33 34 35 50 48 40 46 52 65 90 96 93 98
46 39 36 35 33 31 40 39 33 35 32 31 36 33 35 29 29 29 27 23 25 17 14 15 23 32 46 52 58 54 47 40 39 39 52 52 47 49 56 59 84 99 98 98
46 41 40 38 34 34 36 36 36 37 41 40 40 39 36 35 33 31 29 27 19 16 15 17 25 34 54 56 66 64 54 47 47 45 48 58 54 50 55 61 75 96 99 98
50 46 45 43 37 36 36 37 38 44 48 48 48 57 40 36 32 27 25 23 20 17 14 20 30 46 57 60 74 75 63 58 54 50 46 58 54 56 56 57 74 89 96 98
54 53 49 46 42 40 39 39 44 46 52 58 48 48 42 39 34 29 25 20 22 16 13 23 35 52 58 68 81 83 74 68 64 53 50 55 60 60 53 51 60 90 95 99
61 59 54 48 42 42 44 47 53 48 48 48 52 51 43 33 35 32 28 23 22 16 14 26 41 54 62 73 89 88 83 75 68 55 53 54 62 60 52 51 67 88 92 99
72 67 56 53 50 47 57 50 57 49 53 50 51 49 39 37 37 33 28 27 23 17 14 24 40 53 63 73 91 94 87 80 71 60 56 53 62 62 52 52 55 73 91 97
70 65 63 60 56 54 52 55 52 58 64 62 60 47 39 39 40 37 29 28 22 16 13 20 33 48 60 69 87 96 89 82 75 66 60 55 62 62 54 53 53 60 87 90
64 66 64 63 62 60 57 58 56 64 51 59 57 57 51 43 39 40 33 25 22 16 14 17 30 41 54 62 81 95 91 84 78 71 64 57 56 64 58 50 56 65 79 84
64 66 66 67 69 66 70 69 68 64 69 66 69 59 47 45 42 41 36 27 22 17 16 16 22 36 48 57 74 88 90 85 81 75 66 63 56 59 51 56 56 67 75 84
65 72 77 68 71 72 70 69 68 70 64 76 75 62 50 48 49 45 39 29 22 18 16 14 17 29 42 52 64 76 84 84 81 75 70 65 56 56 53 55 56 59 73 85
64 74 78 75 77 76 79 77 72 68 67 75 74 65 54 55 55 47 42 33 24 18 16 13 12 21 33 44 51 63 75 84 78 75 73 69 60 56 52 48 52 59 62 87
64 68 73 80 76 72 77 77 77 67 73 71 67 58 55 56 55 49 44 39 27 20 16 13 10 14 23 33 40 50 65 75 78 74 72 71 62 59 51 49 53 62 60 72
69 73 71 72 72 70 70 72 78 70 65 65 63 60 57 56 56 53 48 42 34 23 16 12 10 10 16 24 31 38 51 61 69 75 70 66 63 55 52 51 53 54 56 64
77 73 72 73 71 71 73 71 72 69 69 66 62 62 55 55 56 55 51 47 40 29 18 13 11 9 10 17 23 29 36 46 58 73 72 66 62 55 54 54 54 49 50 56
77 81 78 76 70 73 74 68 67 70 68 65 70 60 60 59 60 57 54 52 44 34 24 16 11 10 9 11 17 22 28 33 43 53 72 68 63 56 53 53 55 54 55 54
75 84 86 84 78 84 70 65 66 65 65 64 62 59 60 58 57 57 54 52 47 39 30 22 15 11 9 9 11 16 20 25 31 40 55 70 64 59 57 54 53 55 56 58
76 86 94 94 93 73 68 63 69 68 67 60 62 61 60 58 58 58 57 53 50 45 37 28 21 14 11 9 9 10 14 17 22 27 38 53 66 62 57 55 55 55 56 59
79 88 95 97 97 90 72 62 66 62 66 61 64 65 64 59 61 61 55 57 54 49 43 34 27 21 14 12 10 10 10 12 15 19 25 33 50 62 60 57 55 57 59 61
88 95 95 92 96 80 72 66 67 75 72 64 66 68 68 64 61 59 55 58 58 54 48 41 32 26 19 15 12 10 10 10 11 15 17 22 29 50 61 61 60 56 60 61
84 96 96 91 98 92 69 73 76 73 68 69 69 72 69 63 61 61 58 57 63 58 54 47 38 31 24 19 15 12 11 10 10 10 13 15 19 26 49 60 62 62 58 61
83 89 95 89 80 77 78 80 79 74 72 72 75 75 71 66 64 64 58 59 66 63 58 52 43 36 29 23 18 16 13 11 10 10 11 12 14 17 25 46 60 65 65 60
64 68 89 89 75 81 83 82 84 80 76 76 75 76 73 69 68 66 60 60 67 67 61 56 48 39 33 28 22 18 16 13 11 10 10 11 12 13 17 24 44 62 66 70
55 72 84 82 79 84 86 85 77 77 80 78 81 80 76 74 73 70 65 62 68 68 68 61 53 41 35 31 26 21 18 16 14 11 11 12 12 12 13 16 23 42 65 70
67 72 79 82 85 91 92 88 84 91 88 85 86 86 79 76 76 73 68 67 74 73 72 69 58 45 38 32 28 24 21 18 16 12 12 13 14 13 14 13 16 23 33 65